User: anonymous   Login
Location: Wawayanda State Park
(41.1833°N, 74.4333°W)
Time: 07:57:22
(UTC-04:00)
Language:

RESURS DK-1 - Orbit

View from above orbital plane
View from above orbital plane
View from above satellite
View from above satellite

Ground track
Ground track

The orbit data is extracted from the following two-line orbital elements,

1 29228U 06021A   16272.06477183  .00000462  00000-0  42582-4 0  9993
2 29228  69.9362  44.8943 0004573 343.7257  16.3755 15.01994150568744
Epoch (UTC): 28 September 2016 01:33:16
Eccentricity: 0.0004573
inclination: 69.9362°
perigee height: 557 km
apogee height: 564 km
right ascension of ascending node: 44.8943°
argument of perigee: 343.7257°
revolutions per day: 15.01994150
mean anomaly at epoch: 16.3755°
orbit number at epoch: 56874

The dashed part of the orbit path shows where the satellite is in the earth's shadow,  

DLR